[[{"header":{"parameterUnit":"m.s-1","parameterCategory":1,"la1":30.2991,"la2":30.254,"lo1":-89.0895,"lo2":-89.0444,"dy":0.0017,"dx":0.0017,"nx":28,"ny":28,"refTime":"2024-10-06T03:00:00:Z","depth":0,"parameterNumber":2,"parameterNumberName":"U-component_of_WINDS"},"data":[0,0,0,0,0,0,0,0,0,0,0,0,0,0,0,0,0,0,0,0,0,0,0,0,0,0,0,0,0,0,0,0,0,0,0,0,0,0,0,0,0,0,0,0,0,0,0,0,0,0,0,0,0,0,0,0,0,0,-3.1081,-3.1081,0,-3.1126,-3.1126,-3.1127,-3.1095,-3.1093,-3.1092,-3.109,-3.1137,-3.114,-3.1142,0,0,0,0,0,0,0,0,0,0,0,0,0,-3.0967,-3.0969,-3.1081,-3.1081,-3.1082,-3.1126,-3.1126,-3.1127,-3.1095,-3.1093,-3.1091,-3.109,-3.1136,-3.1139,-3.1143,0,0,0,0,0,0,0,0,0,0,0,0,0,-3.1015,-3.097,-3.108,-3.1071,-3.1071,-3.1126,-3.1126,-3.1127,-3.1095,-3.1093,-3.1091,-3.1089,-3.1135,-3.1139,-3.1143,-3.121,0,0,-3.1155,-3.1156,0,0,0,0,0,0,0,0,-3.1012,-3.1019,-3.1072,-3.1072,-3.1071,-3.1102,-3.1103,-3.1155,-3.1096,-3.1086,-3.109,-3.1088,-3.1127,-3.1132,-3.1145,-3.1212,-3.1214,-3.1155,-3.1157,-3.1159,-3.116,0,0,0,0,0,0,0,-3.1009,-3.1017,-3.1098,-3.1073,-3.1072,-3.1065,-3.1069,-3.1113,-3.1118,-3.1087,-3.1084,-3.109,-3.1127,-3.1141,-3.1146,-3.1215,-3.1155,-3.1158,-3.1161,-3.1162,-3.134,-3.1343,0,0,0,0,0,0,-3.1006,-3.1014,-3.1097,-3.11,-3.1036,-3.1068,-3.1073,-3.1095,-3.1118,-3.1119,-3.1092,-3.1088,-3.1136,-3.1141,-3.1147,-3.1229,-3.1159,-3.1163,-3.1165,-3.1338,-3.1341,-3.1343,0,0,0,0,0,0,-3.1004,-3.1014,-3.1095,-3.1056,-3.1066,-3.1073,-3.1097,-3.1097,-3.1111,-3.1122,-3.1122,-3.1106,-3.1134,-3.1142,-3.1195,-3.123,-3.1164,-3.1168,-3.1335,-3.1339,-3.1342,-3.1391,0,0,0,0,0,0,-3.1001,-3.1013,-3.1039,-3.1057,-3.1068,-3.1142,-3.1099,-3.1099,-3.1118,-3.1114,-3.1135,-3.1136,-3.1133,-3.1189,-3.1199,-3.1234,-3.1171,-3.1332,-3.1337,-3.1341,-3.1386,-3.1395,-3.1404,0,0,0,0,0,-3.0997,-3.105,-3.104,-3.105,-3.11,-3.1144,-3.115,-3.1146,-3.1121,-3.1147,-3.1153,-3.1136,-3.1224,-3.1195,-3.1205,-3.1242,-3.133,-3.1335,-3.1341,-3.1382,-3.1394,-3.1403,0,0,0,0,0,0,-3.1036,-3.1053,-3.1042,-3.1102,-3.1122,-3.1138,-3.1171,-3.1158,-3.1185,-3.118,-3.1173,-3.1178,-3.1234,-3.1243,-3.121,-3.1309,-3.1273,-3.1281,-3.1301,-3.1312,-3.1321,-3.1318,-3.1174,0,0,0,0,0,-3.1051,-3.1085,-3.1098,-3.1151,-3.1161,-3.1164,-3.1183,-3.1178,-3.1198,-3.1206,-3.1217,-3.1237,-3.1269,-3.1291,-3.1321,-3.1387,-3.1392,-3.1417,-3.1426,-3.1433,-3.144,-3.1477,-3.1489,-3.1361,-3.1361,-3.1361,0,0,-3.1084,-3.1097,-3.1119,-3.1159,-3.1173,-3.1209,-3.1172,-3.1211,-3.1237,-3.1212,-3.1263,-3.1271,-3.1294,-3.1354,-3.138,-3.1363,-3.1476,-3.144,-3.1446,-3.1449,-3.1484,-3.1496,-3.1507,-3.1365,-3.1364,-3.1364,0,0,-3.1162,-3.1175,-3.1221,-3.1237,-3.1259,-3.1261,-3.1272,-3.1291,-3.1295,-3.1346,-3.1328,-3.136,-3.1415,-3.1432,-3.1448,-3.1533,-3.1519,-3.1543,-3.159,-3.1626,-3.1636,-3.1645,-3.1677,-3.1688,-3.155,-3.155,-3.155,0,-3.12,-3.1254,-3.1247,-3.1288,-3.1306,-3.1284,-3.1331,-3.1346,-3.1378,-3.1391,-3.1371,-3.1441,-3.1454,-3.1518,-3.1539,-3.1552,-3.1565,-3.1542,-3.1635,-3.1644,-3.1652,-3.1682,-3.1694,-3.1553,-3.1553,-3.1553,-3.1552,0,-3.13,-3.1337,-3.1371,-3.1403,-3.1424,-3.1468,-3.1468,-3.1491,-3.1484,-3.1488,-3.1541,-3.1556,-3.159,-3.1604,-3.1597,-3.1668,-3.1656,-3.1636,-3.16,-3.1667,-3.1696,-3.1707,-3.1558,-3.1557,-3.1556,-3.1555,0,0,-3.1405,-3.1432,-3.1445,-3.1459,-3.1482,-3.1511,-3.1554,-3.1586,-3.1607,-3.1629,-3.1666,-3.1713,-3.1695,-3.1713,-3.1707,-3.1739,-3.1807,-3.1714,-3.1714,-3.1732,-3.1887,-3.1904,-3.1918,-3.1797,-3.1799,-3.18,-3.1886,0,-3.1486,-3.1561,-3.1556,-3.1626,-3.1661,-3.1641,-3.1679,-3.1697,-3.1702,-3.1733,-3.1738,-3.1772,-3.1744,-3.1755,-3.1785,-3.1792,-3.1838,-3.1786,-3.1832,-3.1833,-3.1829,-3.1932,-3.195,-3.203,-3.1897,-3.1899,-3.19,0,-3.159,-3.1616,-3.1691,-3.171,-3.1724,-3.1758,-3.1788,-3.1817,-3.1838,-3.1839,-3.186,-3.1849,-3.1893,-3.1855,-3.1916,-3.1881,-3.1899,-3.1906,-3.1909,-3.1914,-3.1872,-3.1942,-3.2055,-3.2068,-3.1917,-3.1916,-3.1915,0,-3.1661,-3.1715,-3.1767,-3.1779,-3.1802,-3.1827,-3.1837,-3.1856,-3.1876,-3.1903,-3.1916,-3.1947,-3.1964,-3.1989,-3.1987,-3.1959,-3.205,-3.2011,-3.2053,-3.2053,-3.2074,-3.2073,-3.2194,-3.2083,-3.2083,-3.2083,-3.2083,0,-3.1753,-3.18,-3.1799,-3.1831,-3.1883,-3.1877,-3.1929,-3.1937,-3.1953,-3.1987,-3.1971,-3.2003,-3.1998,-3.203,-3.2029,-3.2081,-3.2088,-3.2092,-3.2091,-3.2094,-3.2094,-3.2107,-3.2102,-3.2086,-3.2085,-3.2085,-3.2084,0,-3.1842,-3.1843,-3.1899,-3.1916,-3.1921,-3.1959,-3.1974,-3.2005,-3.2008,-3.2051,-3.206,-3.2066,-3.2103,-3.2104,-3.2146,-3.2145,-3.2209,-3.2201,-3.2202,-3.2201,-3.2244,-3.2241,-3.2379,-3.2397,-3.2273,-3.2274,-3.2275,0,-3.1901,-3.1937,-3.1958,-3.198,-3.1992,-3.2026,-3.2047,-3.2042,-3.2065,-3.2091,-3.2119,-3.2155,-3.2183,-3.2243,-3.2251,-3.2284,-3.2278,-3.2324,-3.2283,-3.2285,-3.2281,-3.228,-3.2284,-3.2333,-3.2334,-3.2335,-3.2336,0,-3.2007,-3.2006,-3.2037,-3.2068,-3.2094,-3.2118,-3.214,-3.2159,-3.2156,-3.2182,-3.222,-3.2242,-3.2285,-3.2322,-3.2353,-3.2364,-3.2351,-3.2349,-3.2361,-3.2365,-3.2365,-3.2367,-3.2226,-3.2346,-3.2345,-3.2344,-3.2344,-3.2344,-3.2085,-3.2116,-3.2136,-3.2171,-3.2187,-3.2208,-3.2239,-3.2246,-3.2277,-3.2312,-3.2307,-3.235,-3.237,-3.2411,-3.2425,-3.2459,-3.2443,-3.2459,-3.2464,-3.2469,-3.2474,-3.2358,-3.2464,-3.2464,-3.2464,-3.2463,-3.2463,0,-3.2191,-3.2203,-3.2235,-3.2267,-3.2295,-3.2279,-3.2303,-3.2327,-3.2365,-3.2385,-3.2413,-3.2457,-3.2492,-3.2503,-3.2537,-3.2562,-3.2556,-3.2571,-3.257,-3.2573,-3.2486,-3.2473,-3.2575,-3.2575,-3.2575,-3.2575,-3.2575,-3.2575,-3.225,-3.2303,-3.2304,-3.2365,-3.2376,-3.2418,-3.2433,-3.2453,-3.2469,-3.2519,-3.2548,-3.2555,-3.2571,-3.2606,-3.2638,-3.264,-3.2654,-3.2672,-3.2672,-3.259,-3.2579,-3.2569,-3.2557,-3.2675,-3.2675,-3.2757,-3.2758,-3.2758]},{"header":{"parameterUnit":"m.s-1","parameterCategory":1,"la1":30.2991,"la2":30.254,"lo1":-89.0895,"lo2":-89.0444,"dy":0.0017,"dx":0.0017,"nx":28,"ny":28,"refTime":"2024-10-06T03:00:00:Z","depth":0,"parameterNumber":3,"parameterNumberName":"V-component_of_WINDS"},"data":[0,0,0,0,0,0,0,0,0,0,0,0,0,0,0,0,0,0,0,0,0,0,0,0,0,0,0,0,0,0,0,0,0,0,0,0,0,0,0,0,0,0,0,0,0,0,0,0,0,0,0,0,0,0,0,0,0,0,-4.2943,-4.2943,0,-4.2961,-4.2961,-4.2961,-4.2894,-4.2892,-4.289,-4.2888,-4.2904,-4.2906,-4.2908,0,0,0,0,0,0,0,0,0,0,0,0,0,-4.2847,-4.2849,-4.2943,-4.2943,-4.2943,-4.2961,-4.2961,-4.2962,-4.2894,-4.2892,-4.2889,-4.2887,-4.2903,-4.2906,-4.2909,0,0,0,0,0,0,0,0,0,0,0,0,0,-4.2879,-4.285,-4.2943,-4.2912,-4.2909,-4.2961,-4.2961,-4.2962,-4.2895,-4.2892,-4.2889,-4.2886,-4.2902,-4.2906,-4.2909,-4.2991,0,0,-4.292,-4.2921,0,0,0,0,0,0,0,0,-4.2877,-4.2883,-4.2916,-4.2914,-4.2911,-4.2922,-4.2933,-4.2971,-4.2895,-4.29,-4.2888,-4.2884,-4.2912,-4.2915,-4.2925,-4.2991,-4.2992,-4.292,-4.2922,-4.2923,-4.2924,0,0,0,0,0,0,0,-4.2875,-4.2882,-4.295,-4.2917,-4.2914,-4.2896,-4.2897,-4.294,-4.2923,-4.2899,-4.2895,-4.2898,-4.291,-4.2922,-4.2925,-4.2992,-4.292,-4.2923,-4.2925,-4.2926,-4.3127,-4.3131,0,0,0,0,0,0,-4.2877,-4.288,-4.2949,-4.295,-4.2887,-4.29,-4.2902,-4.2922,-4.2922,-4.2919,-4.29,-4.2895,-4.2917,-4.2921,-4.2925,-4.3021,-4.2923,-4.2927,-4.2929,-4.3124,-4.3128,-4.3132,0,0,0,0,0,0,-4.2876,-4.2884,-4.2949,-4.2914,-4.2921,-4.2905,-4.2928,-4.2924,-4.2935,-4.2923,-4.2919,-4.2915,-4.2915,-4.292,-4.2975,-4.3021,-4.2928,-4.2931,-4.312,-4.3125,-4.313,-4.3214,0,0,0,0,0,0,-4.2873,-4.2884,-4.2916,-4.2915,-4.2923,-4.3,-4.2931,-4.2926,-4.2941,-4.2934,-4.2936,-4.2933,-4.2913,-4.297,-4.2979,-4.3024,-4.2934,-4.3116,-4.3123,-4.3128,-4.3207,-4.3222,-4.3234,0,0,0,0,0,-4.287,-4.2938,-4.2917,-4.2926,-4.2962,-4.3002,-4.3007,-4.2983,-4.2945,-4.2976,-4.2969,-4.2933,-4.3014,-4.2977,-4.2985,-4.3032,-4.3113,-4.3121,-4.3128,-4.3202,-4.3219,-4.3233,0,0,0,0,0,0,-4.2942,-4.2937,-4.2915,-4.2984,-4.2995,-4.2991,-4.3029,-4.3001,-4.3022,-4.3014,-4.2982,-4.2983,-4.3044,-4.3043,-4.3001,-4.3112,-4.3057,-4.3067,-4.311,-4.3126,-4.3139,-4.3139,-4.2937,0,0,0,0,0,-4.2967,-4.3001,-4.2994,-4.3056,-4.3062,-4.3045,-4.3062,-4.3043,-4.3051,-4.3055,-4.3051,-4.3061,-4.3088,-4.3107,-4.3131,-4.3207,-4.3206,-4.3243,-4.3256,-4.3267,-4.3276,-4.3316,-4.3333,-4.3156,-4.3156,-4.3156,0,0,-4.3017,-4.3018,-4.3041,-4.3071,-4.3076,-4.3112,-4.3049,-4.3089,-4.3115,-4.3061,-4.3113,-4.3111,-4.3119,-4.3185,-4.3214,-4.3186,-4.3325,-4.3276,-4.3285,-4.3288,-4.3326,-4.3343,-4.3357,-4.3161,-4.316,-4.3159,0,0,-4.3127,-4.3131,-4.3184,-4.3191,-4.3201,-4.3189,-4.3202,-4.3203,-4.32,-4.3252,-4.3212,-4.3242,-4.329,-4.3298,-4.3308,-4.3422,-4.339,-4.343,-4.3499,-4.3539,-4.3553,-4.3565,-4.3607,-4.3622,-4.3439,-4.3439,-4.3439,0,-4.3188,-4.3241,-4.3214,-4.3258,-4.3272,-4.3225,-4.3278,-4.3286,-4.3303,-4.3314,-4.3283,-4.3343,-4.3345,-4.3412,-4.344,-4.3449,-4.3463,-4.343,-4.3553,-4.3565,-4.3576,-4.3615,-4.3631,-4.3444,-4.3443,-4.3443,-4.3442,0,-4.3316,-4.3353,-4.3394,-4.3414,-4.3432,-4.348,-4.346,-4.3482,-4.3461,-4.3453,-4.3507,-4.3507,-4.3532,-4.3546,-4.3526,-4.3611,-4.3594,-4.3559,-4.3503,-4.3599,-4.3635,-4.365,-4.3451,-4.3449,-4.3448,-4.3447,0,0,-4.3472,-4.3477,-4.3493,-4.3501,-4.3509,-4.3536,-4.3582,-4.3607,-4.3627,-4.364,-4.3677,-4.3719,-4.3687,-4.3699,-4.3678,-4.3713,-4.3805,-4.3673,-4.3673,-4.3699,-4.39,-4.3928,-4.3946,-4.3783,-4.3786,-4.3788,-4.39,0,-4.3581,-4.3661,-4.3639,-4.3718,-4.3753,-4.3709,-4.3749,-4.3757,-4.375,-4.3778,-4.3769,-4.38,-4.3755,-4.3762,-4.3794,-4.3787,-4.3845,-4.3778,-4.3818,-4.382,-4.3819,-4.3964,-4.3993,-4.4099,-4.3914,-4.3916,-4.3918,0,-4.3719,-4.374,-4.3823,-4.3826,-4.3839,-4.3876,-4.3897,-4.3924,-4.3933,-4.3925,-4.3939,-4.3912,-4.3956,-4.39,-4.3961,-4.3916,-4.3931,-4.393,-4.3933,-4.3937,-4.3876,-4.3973,-4.4132,-4.4148,-4.394,-4.3938,-4.3936,0,-4.3827,-4.3874,-4.3931,-4.3939,-4.3943,-4.397,-4.3973,-4.3979,-4.3996,-4.4014,-4.4025,-4.4047,-4.406,-4.4078,-4.4058,-4.4019,-4.4122,-4.4064,-4.4117,-4.4118,-4.4142,-4.4141,-4.4307,-4.415,-4.415,-4.4149,-4.4149,0,-4.3952,-4.4005,-4.398,-4.4014,-4.4072,-4.4046,-4.4104,-4.4101,-4.4107,-4.414,-4.4103,-4.4134,-4.4105,-4.4134,-4.4118,-4.4171,-4.4177,-4.4172,-4.4167,-4.4176,-4.4177,-4.4186,-4.4179,-4.4153,-4.4153,-4.4152,-4.4151,0,-4.4082,-4.4067,-4.4126,-4.4126,-4.4127,-4.417,-4.4169,-4.4201,-4.4191,-4.4234,-4.4242,-4.4227,-4.4259,-4.424,-4.4273,-4.4262,-4.4332,-4.4316,-4.433,-4.4326,-4.4381,-4.4377,-4.4559,-4.4582,-4.441,-4.4411,-4.4413,0,-4.4163,-4.4203,-4.4208,-4.4228,-4.4234,-4.4267,-4.4284,-4.4259,-4.4278,-4.4292,-4.4322,-4.4351,-4.4374,-4.4427,-4.4418,-4.4443,-4.4429,-4.4491,-4.4432,-4.444,-4.4431,-4.443,-4.4434,-4.4503,-4.4505,-4.4507,-4.4508,0,-4.431,-4.4301,-4.4328,-4.4353,-4.4375,-4.4393,-4.4408,-4.4426,-4.4401,-4.4425,-4.4458,-4.4476,-4.4509,-4.4539,-4.456,-4.4562,-4.4532,-4.4527,-4.4541,-4.4551,-4.4557,-4.4556,-4.4364,-4.4523,-4.4521,-4.452,-4.452,-4.4519,-4.4419,-4.4453,-4.4462,-4.4494,-4.4502,-4.4517,-4.4548,-4.4543,-4.457,-4.4597,-4.458,-4.4619,-4.4627,-4.4652,-4.4658,-4.4688,-4.4663,-4.4682,-4.4688,-4.4693,-4.4702,-4.4552,-4.4691,-4.4691,-4.469,-4.469,-4.469,0,-4.4565,-4.4568,-4.4598,-4.4621,-4.4646,-4.4615,-4.463,-4.4653,-4.4688,-4.4698,-4.4721,-4.476,-4.4788,-4.4783,-4.4808,-4.4833,-4.482,-4.4841,-4.484,-4.4841,-4.4722,-4.4708,-4.4852,-4.4852,-4.4852,-4.4852,-4.4852,-4.4851,-4.4644,-4.47,-4.4692,-4.4753,-4.4755,-4.4795,-4.4806,-4.482,-4.4828,-4.4873,-4.4897,-4.4893,-4.4897,-4.4923,-4.4948,-4.4945,-4.4957,-4.4983,-4.4976,-4.4865,-4.4849,-4.4834,-4.4821,-4.4986,-4.4986,-4.5092,-4.5093,-4.5094]}]]